Zurück zum Katalog

TITAN 3C TRANSTAGE DEB

LostHEO
NORAD 28833·DEBRIS·🇺🇸 United States

Gestartet Dec 21, 1965 von Cape Canaveral Space Force Station

Loading…

Nächste Überflüge (nächste 24 Stunden)

TLE

VeraltetSource: Space-Track

Epoche: Jan 28, 2026, 18:28 UTC

1 28833U 65108CK  26028.76982112  .00000050  00000-0  00000-0 0  9993
2 28833  27.8604 239.5933 6558514 183.5075 167.3149  2.64806015 88403

Verfolge TITAN 3C TRANSTAGE DEB in Echtzeit mit AllMySat

Download on the App Store